Tracking 31013 objects as of 10-Jul-2025
HD Live streaming from Space Station
objects crossing your sky now

COSMOS 839 DEB

Track COSMOS 839 DEB now!
10-day predictions


NORAD ID: 10416
Int'l Code: 1976-067K
Perigee: 1,073.5 km
Apogee: 2,122.4 km
Inclination: 65.7 °
Period: 118.0 minutes
Semi major axis: 7968 km
RCS: 0.1276 m2 (medium)
Launch date: July 8, 1976
Source: Commonwealth of Independent States (former USSR) (CIS)
Launch site: PLESETSK MISSILE AND SPACE COMPLEX (PKMTR)

Note: This is SATELLITE DEBRIS
Your satellite tracking list
Your tracking list is empty




NASA's NSSDC Master Catalog

Two Line Element Set (TLE):
1 10416U 76067K   25191.60456157 -.00000037  00000-0  83269-4 0  9993
2 10416  65.7155 141.6392 0658081 225.3188 315.2825 12.20399023184185
Source of the keplerian elements: AFSPC